Location: Binningen
(47.7924°N, 8.7261°E)
Time: 03:44:22
(UTC+00:00)

Cosmos 2341 Rocket - Pass Details

Date: 17 May 2021
Orbit: 969 x 1004 km, 82.9° (Epoch: 14 June)

Event Time Altitude Azimuth Distance (km) Brightness Sun altitude
Rises 21:13:37 0° 350° (N) 3,744 8.4 -16.8°
Reaches altitude 10° 21:16:10 10° 351° (N) 2,789 7.5 -17.0°
Maximum altitude 21:22:36 90° 79° (E) 1,009 4.0 -17.6°
Enters shadow 21:26:27 26° 173° (S) 1,852 4.9 -17.9°
